{"data":{"norad_id":53027,"intl_designator":"2022-076AT","name":"STARLINK-4158","alt_names":[],"object_type":"PAYLOAD","status":"ACTIVE","operator":null,"country":"US","launch_date":"2022-07-07","launch_site_code":"AFETR","launch_vehicle":null,"mission":null,"orbit_class":"UNKNOWN","rcs_meters":null,"size_class":null,"mass_kg":null,"dimensions":null,"purposes":["comms"],"wikipedia_slug":null,"has_3d_model":false,"image_url":null,"decayed_at":null,"tle_current":{"epoch":"2026-09-20T00:07:01.473024Z","epoch_age_seconds":112246,"freshness":"FRESH","line1":"1 53027U 22076AT  26263.00487816  .00000570  00000+0  28014-4 0  9997","line2":"2 53027  53.1595 275.8238 0001225  87.7732 272.3411 15.34392466232545","mean_motion":15.34392466,"eccentricity":0.0001225,"inclination_deg":53.1595,"raan_deg":275.8238,"arg_perigee_deg":87.7732,"mean_anomaly_deg":272.3411,"bstar":2.8014e-5,"rev_number":23254,"period_min":93.848218881961,"perigee_km":461.88762726191,"apogee_km":463.56363860698,"semimajor_km":6840.8626329344,"source":"CELESTRAK","updated_at":"2026-09-20T09:00:40.147232Z"}}}